| time (UTC) | temp F | wind direction | speed MPH | gust MPH | rain 1hr in | rain 24hr in | rain mn in | humidity % | barometer mb |
| 20260509011652 | 64 | 109 | 0.0 | 1.0 | 0.00 | 0.00 | 0.00 | 77 | 1001.1 |
| 20260509011149 | 65 | 134 | 0.0 | 0.0 | 0.00 | 0.00 | 0.00 | 77 | 1001.1 |
| 20260509010647 | 65 | 127 | 0.0 | 0.0 | 0.00 | 0.00 | 0.00 | 75 | 1001.1 |
| 20260509010143 | 66 | 124 | 0.0 | 1.0 | 0.00 | 0.00 | 0.00 | 74 | 1001.3 |
| 20260509005641 | 66 | 151 | 1.0 | 1.0 | 0.00 | 0.00 | 0.00 | 72 | 1001.3 |
| 20260509005137 | 66 | 128 | 0.0 | 0.0 | 0.00 | 0.00 | 0.00 | 72 | 1001.5 |
| 20260509004633 | 66 | 117 | 0.0 | 0.0 | 0.00 | 0.00 | 0.00 | 70 | 1001.4 |
| 20260509004130 | 66 | 122 | 0.0 | 0.0 | 0.00 | 0.00 | 0.00 | 71 | 1001.4 |
| 20260509003628 | 67 | 155 | 1.0 | 1.0 | 0.00 | 0.00 | 0.00 | 73 | 1001.3 |
| 20260509003125 | 67 | 121 | 0.0 | 0.0 | 0.00 | 0.00 | 0.00 | 72 | 1001.0 |
| 20260509002623 | 67 | 116 | 0.0 | 0.0 | 0.00 | 0.00 | 0.00 | 71 | 1001.3 |
| 20260509002120 | 68 | 115 | 0.0 | 0.0 | 0.00 | 0.00 | 0.00 | 69 | 1001.0 |
| 20260509001618 | 68 | 115 | 0.0 | 0.0 | 0.00 | 0.00 | 0.00 | 69 | 1001.1 |
| 20260509001113 | 69 | 107 | 0.0 | 0.0 | 0.00 | 0.00 | 0.00 | 69 | 1001.1 |
| 20260509000612 | 69 | 113 | 0.0 | 1.0 | 0.00 | 0.00 | 0.00 | 67 | 1001.2 |
| 20260509000108 | 69 | 114 | 0.0 | 0.0 | 0.00 | 0.00 | 0.00 | 65 | 1001.4 |
| 20260508235605 | 69 | 112 | 0.0 | 0.0 | 0.00 | 0.00 | 0.00 | 63 | 1001.5 |
| 20260508235101 | 69 | 78 | 1.0 | 1.0 | 0.00 | 0.00 | 0.00 | 64 | 1001.5 |
| 20260508234559 | 69 | 90 | 1.0 | 1.0 | 0.00 | 0.00 | 0.00 | 64 | 1001.7 |
| 20260508234055 | 69 | 109 | 0.0 | 1.0 | 0.00 | 0.00 | 0.00 | 65 | 1001.7 |
| 20260508233555 | 69 | 106 | 0.0 | 0.0 | 0.00 | 0.00 | 0.00 | 67 | 1002.1 |
| 20260508233052 | 70 | 121 | 0.0 | 0.0 | 0.00 | 0.00 | 0.00 | 68 | 1002.1 |
| 20260508232549 | 71 | 132 | 0.0 | 1.0 | 0.00 | 0.00 | 0.00 | 68 | 1002.2 |
| 20260508232046 | 71 | 119 | 0.0 | 0.0 | 0.00 | 0.00 | 0.00 | 62 | 1002.1 |
| 20260508231543 | 72 | 132 | 0.0 | 0.0 | 0.00 | 0.00 | 0.00 | 61 | 1002.3 |
| 20260508231040 | 72 | 144 | 1.0 | 1.0 | 0.00 | 0.00 | 0.00 | 59 | 1002.4 |
| 20260508230537 | 72 | 148 | 0.0 | 1.0 | 0.00 | 0.00 | 0.00 | 56 | 1002.0 |
| 20260508230033 | 73 | 115 | 0.0 | 0.0 | 0.00 | 0.00 | 0.00 | 55 | 1002.1 |
| 20260508225531 | 73 | 118 | 0.0 | 1.0 | 0.00 | 0.00 | 0.00 | 53 | 1002.4 |
| 20260508225027 | 73 | 127 | 1.0 | 2.0 | 0.00 | 0.00 | 0.00 | 52 | 1002.1 |
| 20260508224525 | 73 | 148 | 1.0 | 2.0 | 0.00 | 0.00 | 0.00 | 53 | 1002.1 |
| 20260508224022 | 74 | 120 | 1.0 | 2.0 | 0.00 | 0.00 | 0.00 | 53 | 1001.9 |
| 20260508223520 | 74 | 88 | 1.0 | 1.0 | 0.00 | 0.00 | 0.00 | 51 | 1001.9 |
| 20260508223017 | 75 | 118 | 0.0 | 0.0 | 0.00 | 0.00 | 0.00 | 51 | 1001.8 |
| 20260508222515 | 77 | 130 | 0.0 | 1.0 | 0.00 | 0.00 | 0.00 | 50 | 1001.8 |
| 20260508222011 | 77 | 107 | 1.0 | 1.0 | 0.00 | 0.00 | 0.00 | 52 | 1001.8 |
| 20260508221508 | 78 | 38 | 2.0 | 3.0 | 0.00 | 0.00 | 0.00 | 50 | 1001.4 |
| 20260508221004 | 78 | 219 | 2.0 | 3.0 | 0.00 | 0.00 | 0.00 | 50 | 1001.3 |
| 20260508220500 | 78 | 163 | 2.0 | 2.0 | 0.00 | 0.00 | 0.00 | 49 | 1001.7 |
| 20260508215956 | 78 | 67 | 1.0 | 3.0 | 0.00 | 0.00 | 0.00 | 52 | 1001.7 |
| 20260508215453 | 78 | 358 | 3.0 | 6.0 | 0.00 | 0.00 | 0.00 | 50 | 1001.8 |
| 20260508214950 | 78 | 193 | 3.0 | 3.0 | 0.00 | 0.00 | 0.00 | 49 | 1001.7 |
| 20260508214448 | 78 | 292 | 3.0 | 3.0 | 0.00 | 0.00 | 0.00 | 47 | 1001.9 |
| 20260508213943 | 78 | 281 | 2.0 | 2.0 | 0.00 | 0.00 | 0.00 | 49 | 1001.8 |
| 20260508213441 | 79 | 242 | 2.0 | 3.0 | 0.00 | 0.00 | 0.00 | 49 | 1002.1 |
| 20260508212936 | 79 | 99 | 3.0 | 3.0 | 0.00 | 0.00 | 0.00 | 49 | 1001.7 |
| 20260508212434 | 80 | 121 | 1.0 | 1.0 | 0.00 | 0.00 | 0.00 | 48 | 1002.1 |
| 20260508211929 | 79 | 165 | 1.0 | 2.0 | 0.00 | 0.00 | 0.00 | 52 | 1002.3 |
| 20260508211425 | 80 | 354 | 4.0 | 5.0 | 0.00 | 0.00 | 0.00 | 46 | 1002.2 |
| 20260508210923 | 79 | 130 | 0.0 | 1.0 | 0.00 | 0.00 | 0.00 | 53 | 1002.3 |
| 20260508210419 | 79 | 124 | 0.0 | 1.0 | 0.00 | 0.00 | 0.00 | 53 | 1002.4 |
| 20260508205910 | 79 | 172 | 2.0 | 2.0 | 0.00 | 0.00 | 0.00 | 46 | 1002.6 |
| 20260508205407 | 78 | 335 | 3.0 | 5.0 | 0.00 | 0.00 | 0.00 | 47 | 1002.7 |
| 20260508204903 | 79 | 153 | 3.0 | 5.0 | 0.00 | 0.00 | 0.00 | 46 | 1002.8 |
| 20260508204401 | 78 | 160 | 3.0 | 5.0 | 0.00 | 0.00 | 0.00 | 49 | 1002.6 |
| 20260508203856 | 78 | 162 | 2.0 | 2.0 | 0.00 | 0.00 | 0.00 | 50 | 1002.8 |
| 20260508203352 | 78 | 44 | 2.0 | 2.0 | 0.00 | 0.00 | 0.00 | 52 | 1003.0 |
| 20260508202848 | 77 | 154 | 2.0 | 2.0 | 0.00 | 0.00 | 0.00 | 47 | 1002.9 |
| 20260508202346 | 77 | 329 | 2.0 | 3.0 | 0.00 | 0.00 | 0.00 | 49 | 1003.1 |
| 20260508201843 | 77 | 271 | 3.0 | 3.0 | 0.00 | 0.00 | 0.00 | 50 | 1003.5 |
| 20260508201340 | 77 | 114 | 0.0 | 1.0 | 0.00 | 0.00 | 0.00 | 54 | 1003.3 |
| 20260508200836 | 77 | 65 | 3.0 | 3.0 | 0.00 | 0.00 | 0.00 | 49 | 1003.3 |
| 20260508200333 | 76 | 226 | 5.0 | 6.0 | 0.00 | 0.00 | 0.00 | 48 | 1003.5 |
| 20260508195828 | 77 | 310 | 3.0 | 3.0 | 0.00 | 0.00 | 0.00 | 51 | 1003.6 |
| 20260508195326 | 77 | 168 | 4.0 | 6.0 | 0.00 | 0.00 | 0.00 | 50 | 1003.6 |
| 20260508194822 | 77 | 148 | 2.0 | 3.0 | 0.00 | 0.00 | 0.00 | 50 | 1003.8 |
| 20260508194319 | 77 | 225 | 4.0 | 5.0 | 0.00 | 0.00 | 0.00 | 48 | 1003.8 |
| 20260508193816 | 76 | 214 | 4.0 | 5.0 | 0.00 | 0.00 | 0.00 | 48 | 1003.8 |
| 20260508193313 | 75 | 151 | 0.0 | 1.0 | 0.00 | 0.00 | 0.00 | 52 | 1003.9 |
| 20260508192808 | 74 | 250 | 1.0 | 2.0 | 0.00 | 0.00 | 0.00 | 50 | 1003.9 |
| 20260508192306 | 73 | 189 | 3.0 | 6.0 | 0.00 | 0.00 | 0.00 | 51 | 1004.0 |
| 20260508191803 | 74 | 307 | 7.0 | 8.0 | 0.00 | 0.00 | 0.00 | 48 | 1004.2 |
| 20260508191300 | 74 | 138 | 2.0 | 2.0 | 0.00 | 0.00 | 0.00 | 50 | 1004.1 |
| 20260508190757 | 74 | 153 | 2.0 | 2.0 | 0.00 | 0.00 | 0.00 | 52 | 1004.2 |
| 20260508190253 | 74 | 229 | 3.0 | 5.0 | 0.00 | 0.00 | 0.00 | 50 | 1004.5 |
| 20260508185749 | 74 | 260 | 4.0 | 6.0 | 0.00 | 0.00 | 0.00 | 51 | 1004.4 |
| 20260508185247 | 74 | 128 | 1.0 | 2.0 | 0.00 | 0.00 | 0.00 | 52 | 1004.6 |
| 20260508184744 | 74 | 358 | 3.0 | 3.0 | 0.00 | 0.00 | 0.00 | 52 | 1004.5 |
| 20260508184241 | 75 | 301 | 4.0 | 9.0 | 0.00 | 0.00 | 0.00 | 50 | 1004.6 |
| 20260508183738 | 75 | 276 | 4.0 | 5.0 | 0.00 | 0.00 | 0.00 | 52 | 1004.5 |
| 20260508183234 | 75 | 352 | 2.0 | 3.0 | 0.00 | 0.00 | 0.00 | 56 | 1004.6 |
| 20260508182730 | 75 | 178 | 5.0 | 6.0 | 0.00 | 0.00 | 0.00 | 52 | 1005.0 |
| 20260508182227 | 75 | 168 | 2.0 | 2.0 | 0.00 | 0.00 | 0.00 | 55 | 1005.1 |
| 20260508181723 | 75 | 234 | 1.0 | 1.0 | 0.00 | 0.00 | 0.00 | 58 | 1005.0 |
| 20260508181220 | 74 | 276 | 3.0 | 5.0 | 0.00 | 0.00 | 0.00 | 52 | 1005.1 |
| 20260508180717 | 74 | 105 | 1.0 | 1.0 | 0.00 | 0.00 | 0.00 | 54 | 1005.0 |
| 20260508180214 | 74 | 156 | 1.0 | 1.0 | 0.00 | 0.00 | 0.00 | 52 | 1005.3 |
| 20260508175710 | 73 | 200 | 2.0 | 2.0 | 0.00 | 0.00 | 0.00 | 52 | 1005.2 |
| 20260508175207 | 73 | 310 | 3.0 | 3.0 | 0.00 | 0.00 | 0.00 | 57 | 1005.3 |
| 20260508174705 | 73 | 294 | 5.0 | 7.0 | 0.00 | 0.00 | 0.00 | 57 | 1005.5 |
| 20260508174201 | 73 | 195 | 4.0 | 5.0 | 0.00 | 0.00 | 0.00 | 58 | 1005.4 |
| 20260508173658 | 72 | 109 | 1.0 | 2.0 | 0.00 | 0.00 | 0.00 | 61 | 1005.6 |
| 20260508173154 | 71 | 112 | 0.0 | 1.0 | 0.00 | 0.00 | 0.00 | 58 | 1005.5 |
| 20260508172652 | 71 | 295 | 4.0 | 5.0 | 0.00 | 0.00 | 0.00 | 59 | 1005.9 |
| 20260508172148 | 70 | 116 | 1.0 | 2.0 | 0.00 | 0.00 | 0.00 | 63 | 1005.8 |
| 20260508171645 | 70 | 87 | 0.0 | 0.0 | 0.00 | 0.00 | 0.00 | 60 | 1005.9 |
| 20260508171141 | 70 | 195 | 3.0 | 3.0 | 0.00 | 0.00 | 0.00 | 61 | 1005.9 |
| 20260508170638 | 70 | 121 | 1.0 | 1.0 | 0.00 | 0.00 | 0.00 | 59 | 1006.1 |
| 20260508170136 | 70 | 89 | 3.0 | 3.0 | 0.00 | 0.00 | 0.00 | 58 | 1005.9 |
| 20260508165633 | 70 | 299 | 2.0 | 3.0 | 0.00 | 0.00 | 0.00 | 62 | 1006.1 |
| 20260508165130 | 69 | 115 | 2.0 | 2.0 | 0.00 | 0.00 | 0.00 | 59 | 1006.2 |
| 20260508164626 | 69 | 206 | 4.0 | 6.0 | 0.00 | 0.00 | 0.00 | 61 | 1006.5 |
| 20260508164123 | 69 | 41 | 3.0 | 3.0 | 0.00 | 0.00 | 0.00 | 64 | 1006.2 |
| 20260508163620 | 69 | 207 | 2.0 | 2.0 | 0.00 | 0.00 | 0.00 | 63 | 1006.4 |
| 20260508163117 | 69 | 163 | 3.0 | 3.0 | 0.00 | 0.00 | 0.00 | 62 | 1006.4 |
| 20260508162614 | 68 | 260 | 1.0 | 2.0 | 0.00 | 0.00 | 0.00 | 62 | 1006.6 |
| 20260508162111 | 68 | 289 | 3.0 | 5.0 | 0.00 | 0.00 | 0.00 | 60 | 1006.8 |
| 20260508161608 | 69 | 86 | 2.0 | 3.0 | 0.00 | 0.00 | 0.00 | 64 | 1006.7 |
| 20260508161105 | 68 | 203 | 2.0 | 3.0 | 0.00 | 0.00 | 0.00 | 63 | 1006.9 |
| 20260508160604 | 68 | 297 | 4.0 | 5.0 | 0.00 | 0.00 | 0.00 | 61 | 1006.8 |
| 20260508160100 | 68 | 160 | 2.0 | 3.0 | 0.00 | 0.00 | 0.00 | 61 | 1007.1 |
| 20260508155557 | 67 | 140 | 3.0 | 3.0 | 0.00 | 0.00 | 0.00 | 62 | 1006.9 |
| 20260508155054 | 67 | 135 | 3.0 | 6.0 | 0.00 | 0.00 | 0.00 | 62 | 1006.9 |
| 20260508154551 | 67 | 144 | 1.0 | 2.0 | 0.00 | 0.00 | 0.00 | 62 | 1007.0 |
| 20260508154048 | 67 | 323 | 3.0 | 3.0 | 0.00 | 0.00 | 0.00 | 63 | 1006.9 |
| 20260508153545 | 67 | 185 | 1.0 | 2.0 | 0.00 | 0.00 | 0.00 | 62 | 1006.7 |
| 20260508153041 | 66 | 111 | 1.0 | 2.0 | 0.00 | 0.00 | 0.00 | 63 | 1007.0 |
| 20260508152539 | 66 | 152 | 1.0 | 1.0 | 0.00 | 0.00 | 0.00 | 65 | 1007.0 |
| 20260508152034 | 66 | 194 | 5.0 | 6.0 | 0.00 | 0.00 | 0.00 | 65 | 1007.0 |
| 20260508151531 | 66 | 161 | 3.0 | 5.0 | 0.00 | 0.00 | 0.00 | 66 | 1007.0 |
| 20260508151028 | 65 | 170 | 3.0 | 3.0 | 0.00 | 0.00 | 0.00 | 66 | 1007.2 |
| 20260508150525 | 64 | 181 | 3.0 | 3.0 | 0.00 | 0.00 | 0.00 | 66 | 1007.5 |
| 20260508150020 | 64 | 245 | 2.0 | 3.0 | 0.00 | 0.00 | 0.00 | 68 | 1007.4 |
| 20260508145518 | 63 | 64 | 2.0 | 3.0 | 0.00 | 0.00 | 0.00 | 67 | 1007.4 |
| 20260508145014 | 62 | 199 | 5.0 | 6.0 | 0.00 | 0.00 | 0.00 | 67 | 1007.2 |
| 20260508144512 | 62 | 206 | 5.0 | 7.0 | 0.00 | 0.00 | 0.00 | 69 | 1007.4 |
| 20260508144009 | 61 | 185 | 6.0 | 8.0 | 0.00 | 0.00 | 0.00 | 69 | 1007.4 |
| 20260508143506 | 60 | 165 | 1.0 | 2.0 | 0.00 | 0.00 | 0.00 | 71 | 1007.4 |
| 20260508143002 | 61 | 196 | 3.0 | 5.0 | 0.00 | 0.00 | 0.00 | 70 | 1007.4 |
| 20260508142500 | 61 | 220 | 2.0 | 3.0 | 0.00 | 0.00 | 0.00 | 69 | 1007.6 |
| 20260508141956 | 61 | 167 | 3.0 | 5.0 | 0.00 | 0.00 | 0.00 | 68 | 1007.5 |
| 20260508141453 | 62 | 174 | 3.0 | 3.0 | 0.00 | 0.00 | 0.00 | 70 | 1007.6 |
| 20260508140951 | 61 | 116 | 1.0 | 1.0 | 0.00 | 0.00 | 0.00 | 72 | 1007.6 |
| 20260508140448 | 59 | 169 | 3.0 | 5.0 | 0.00 | 0.00 | 0.00 | 74 | 1007.7 |
| 20260508135943 | 59 | 119 | 0.0 | 1.0 | 0.00 | 0.00 | 0.00 | 74 | 1007.4 |
| 20260508135440 | 59 | 139 | 3.0 | 3.0 | 0.00 | 0.00 | 0.00 | 73 | 1007.8 |
| 20260508134936 | 58 | 346 | 1.0 | 2.0 | 0.00 | 0.00 | 0.00 | 74 | 1007.6 |
| 20260508134433 | 58 | 134 | 0.0 | 1.0 | 0.00 | 0.00 | 0.00 | 75 | 1007.8 |
| 20260508133929 | 59 | 127 | 2.0 | 3.0 | 0.00 | 0.00 | 0.00 | 74 | 1007.7 |
| 20260508133427 | 59 | 21 | 2.0 | 2.0 | 0.00 | 0.00 | 0.00 | 74 | 1007.6 |
| 20260508132924 | 59 | 121 | 0.0 | 1.0 | 0.00 | 0.00 | 0.00 | 75 | 1007.7 |
| 20260508132422 | 58 | 114 | 1.0 | 1.0 | 0.00 | 0.00 | 0.00 | 77 | 1007.6 |
| 20260508131918 | 57 | 104 | 0.0 | 0.0 | 0.00 | 0.00 | 0.00 | 80 | 1007.6 |
| 20260508131414 | 56 | 168 | 2.0 | 2.0 | 0.00 | 0.00 | 0.00 | 84 | 1007.8 |
| 20260508130911 | 54 | 76 | 1.0 | 2.0 | 0.00 | 0.00 | 0.00 | 84 | 1007.6 |
| 20260508130408 | 54 | 111 | 0.0 | 1.0 | 0.00 | 0.00 | 0.00 | 86 | 1007.5 |
| 20260508125903 | 54 | 50 | 0.0 | 1.0 | 0.00 | 0.00 | 0.00 | 87 | 1007.8 |
| 20260508125359 | 53 | 114 | 2.0 | 2.0 | 0.00 | 0.00 | 0.00 | 92 | 1007.6 |
| 20260508124858 | 52 | 303 | 2.0 | 2.0 | 0.00 | 0.00 | 0.00 | 96 | 1007.8 |
| 20260508124355 | 51 | 55 | 1.0 | 1.0 | 0.00 | 0.00 | 0.00 | 99 | 1007.6 |
| 20260508123853 | 50 | 93 | 0.0 | 0.0 | 0.00 | 0.00 | 0.00 | 99 | 1007.6 |
| 20260508123351 | 49 | 52 | 1.0 | 1.0 | 0.00 | 0.00 | 0.00 | 99 | 1007.5 |
| 20260508122847 | 48 | 119 | 0.0 | 1.0 | 0.00 | 0.00 | 0.00 | 99 | 1007.8 |
| 20260508122344 | 48 | 59 | 1.0 | 1.0 | 0.00 | 0.00 | 0.00 | 99 | 1007.6 |
| 20260508121841 | 47 | 100 | 0.0 | 0.0 | 0.00 | 0.00 | 0.00 | 99 | 1007.6 |
| 20260508121340 | 46 | 95 | 1.0 | 1.0 | 0.00 | 0.00 | 0.00 | 99 | 1007.8 |
| 20260508120837 | 45 | 91 | 0.0 | 1.0 | 0.00 | 0.00 | 0.00 | 99 | 1007.7 |
| 20260508120334 | 44 | 102 | 0.0 | 0.0 | 0.00 | 0.00 | 0.00 | 99 | 1007.8 |
| 20260508115832 | 43 | 96 | 0.0 | 1.0 | 0.00 | 0.00 | 0.00 | 99 | 1007.8 |
| 20260508115329 | 43 | 104 | 0.0 | 0.0 | 0.00 | 0.00 | 0.00 | 99 | 1007.7 |
| 20260508114826 | 42 | 103 | 0.0 | 0.0 | 0.00 | 0.00 | 0.00 | 99 | 1007.5 |
| 20260508114323 | 41 | 117 | 0.0 | 0.0 | 0.00 | 0.00 | 0.00 | 99 | 1007.5 |
| 20260508113819 | 41 | 120 | 1.0 | 1.0 | 0.00 | 0.00 | 0.00 | 99 | 1007.8 |
| 20260508113318 | 40 | 111 | 0.0 | 0.0 | 0.00 | 0.00 | 0.00 | 99 | 1007.5 |
| 20260508112813 | 40 | 103 | 0.0 | 0.0 | 0.00 | 0.00 | 0.00 | 99 | 1007.4 |
| 20260508112311 | 40 | 101 | 0.0 | 0.0 | 0.00 | 0.00 | 0.00 | 99 | 1007.4 |
| 20260508111807 | 39 | 101 | 0.0 | 0.0 | 0.00 | 0.00 | 0.00 | 99 | 1007.6 |
| 20260508111305 | 39 | 102 | 0.0 | 0.0 | 0.00 | 0.00 | 0.00 | 99 | 1007.5 |
| 20260508110802 | 40 | 101 | 0.0 | 0.0 | 0.00 | 0.00 | 0.00 | 99 | 1007.5 |
| 20260508110259 | 40 | 101 | 0.0 | 0.0 | 0.00 | 0.00 | 0.00 | 99 | 1007.5 |
| 20260508105759 | 40 | 101 | 0.0 | 0.0 | 0.00 | 0.00 | 0.00 | 99 | 1007.5 |
| 20260508105256 | 40 | 103 | 0.0 | 0.0 | 0.00 | 0.00 | 0.00 | 99 | 1007.5 |
| 20260508104753 | 41 | 103 | 0.0 | 0.0 | 0.00 | 0.00 | 0.00 | 99 | 1007.5 |
| 20260508104250 | 41 | 104 | 0.0 | 0.0 | 0.00 | 0.00 | 0.00 | 99 | 1007.5 |
| 20260508103747 | 41 | 100 | 0.0 | 0.0 | 0.00 | 0.00 | 0.00 | 99 | 1007.6 |
| 20260508103244 | 41 | 103 | 0.0 | 0.0 | 0.00 | 0.00 | 0.00 | 99 | 1007.5 |
| 20260508102741 | 41 | 105 | 0.0 | 0.0 | 0.00 | 0.00 | 0.00 | 99 | 1007.5 |
| 20260508102239 | 41 | 104 | 0.0 | 0.0 | 0.00 | 0.00 | 0.00 | 99 | 1007.3 |
| 20260508101736 | 40 | 110 | 0.0 | 0.0 | 0.00 | 0.00 | 0.00 | 99 | 1007.3 |
| 20260508101233 | 40 | 103 | 0.0 | 0.0 | 0.00 | 0.00 | 0.00 | 99 | 1007.2 |
| 20260508100732 | 39 | 103 | 0.0 | 0.0 | 0.00 | 0.00 | 0.00 | 99 | 1007.0 |
| 20260508100229 | 39 | 102 | 0.0 | 0.0 | 0.00 | 0.00 | 0.00 | 99 | 1007.1 |
| 20260508095725 | 40 | 102 | 0.0 | 0.0 | 0.00 | 0.00 | 0.00 | 99 | 1007.0 |
| 20260508095223 | 39 | 101 | 0.0 | 0.0 | 0.00 | 0.00 | 0.00 | 99 | 1007.1 |
| 20260508094719 | 39 | 102 | 0.0 | 0.0 | 0.00 | 0.00 | 0.00 | 99 | 1007.4 |
| 20260508094216 | 39 | 102 | 0.0 | 0.0 | 0.00 | 0.00 | 0.00 | 99 | 1007.4 |
| 20260508093713 | 40 | 102 | 0.0 | 0.0 | 0.00 | 0.00 | 0.00 | 99 | 1007.2 |
| 20260508093211 | 40 | 102 | 0.0 | 0.0 | 0.00 | 0.00 | 0.00 | 99 | 1007.3 |
| 20260508092708 | 40 | 102 | 0.0 | 0.0 | 0.00 | 0.00 | 0.00 | 99 | 1007.3 |
| 20260508092206 | 40 | 102 | 0.0 | 0.0 | 0.00 | 0.00 | 0.00 | 99 | 1007.4 |
| 20260508091703 | 40 | 101 | 0.0 | 0.0 | 0.00 | 0.00 | 0.00 | 99 | 1007.5 |
| 20260508091200 | 40 | 102 | 0.0 | 0.0 | 0.00 | 0.00 | 0.00 | 99 | 1007.3 |
| 20260508090658 | 40 | 102 | 0.0 | 0.0 | 0.00 | 0.00 | 0.00 | 99 | 1007.4 |
| 20260508090155 | 40 | 101 | 0.0 | 0.0 | 0.00 | 0.00 | 0.00 | 99 | 1007.5 |
| 20260508085651 | 40 | 101 | 0.0 | 0.0 | 0.00 | 0.00 | 0.00 | 99 | 1007.5 |
| 20260508085149 | 40 | 101 | 0.0 | 0.0 | 0.00 | 0.00 | 0.00 | 99 | 1007.4 |
| 20260508084640 | 41 | 102 | 0.0 | 0.0 | 0.00 | 0.00 | 0.00 | 99 | 1007.4 |
| 20260508084137 | 41 | 103 | 0.0 | 0.0 | 0.00 | 0.00 | 0.00 | 99 | 1007.6 |
| 20260508083634 | 41 | 108 | 0.0 | 0.0 | 0.00 | 0.00 | 0.00 | 99 | 1007.5 |
| 20260508083132 | 40 | 104 | 0.0 | 0.0 | 0.00 | 0.00 | 0.00 | 99 | 1007.6 |
| 20260508082632 | 40 | 102 | 0.0 | 0.0 | 0.00 | 0.00 | 0.00 | 99 | 1007.8 |
| 20260508082129 | 40 | 104 | 0.0 | 0.0 | 0.00 | 0.00 | 0.00 | 99 | 1007.8 |
| 20260508081627 | 40 | 101 | 0.0 | 0.0 | 0.00 | 0.00 | 0.00 | 99 | 1007.7 |
| 20260508081123 | 40 | 101 | 0.0 | 0.0 | 0.00 | 0.00 | 0.00 | 99 | 1007.9 |
| 20260508080621 | 40 | 102 | 0.0 | 0.0 | 0.00 | 0.00 | 0.00 | 99 | 1007.7 |
| 20260508080119 | 40 | 102 | 0.0 | 0.0 | 0.00 | 0.00 | 0.00 | 99 | 1007.9 |
| 20260508075615 | 40 | 102 | 0.0 | 0.0 | 0.00 | 0.00 | 0.00 | 99 | 1007.9 |
| 20260508075112 | 41 | 102 | 0.0 | 0.0 | 0.00 | 0.00 | 0.00 | 99 | 1007.9 |
| 20260508074610 | 41 | 102 | 0.0 | 0.0 | 0.00 | 0.00 | 0.00 | 99 | 1007.9 |
| 20260508074106 | 41 | 101 | 0.0 | 0.0 | 0.00 | 0.00 | 0.00 | 99 | 1008.0 |
| 20260508073604 | 41 | 102 | 0.0 | 0.0 | 0.00 | 0.00 | 0.00 | 99 | 1008.1 |
| 20260508073102 | 41 | 102 | 0.0 | 0.0 | 0.00 | 0.00 | 0.00 | 99 | 1008.0 |
| 20260508072556 | 41 | 103 | 0.0 | 0.0 | 0.00 | 0.00 | 0.00 | 99 | 1008.2 |
| 20260508072054 | 41 | 103 | 0.0 | 0.0 | 0.00 | 0.00 | 0.00 | 99 | 1008.2 |
| 20260508071552 | 41 | 102 | 0.0 | 0.0 | 0.00 | 0.00 | 0.00 | 99 | 1008.1 |
| 20260508071050 | 41 | 102 | 0.0 | 0.0 | 0.00 | 0.00 | 0.00 | 99 | 1008.1 |
| 20260508070547 | 41 | 101 | 0.0 | 0.0 | 0.00 | 0.00 | 0.00 | 99 | 1008.4 |
| 20260508070045 | 41 | 101 | 0.0 | 0.0 | 0.00 | 0.00 | 0.00 | 99 | 1008.6 |
| 20260508065542 | 41 | 101 | 0.0 | 0.0 | 0.00 | 0.00 | 0.00 | 99 | 1008.1 |
| 20260508065040 | 41 | 102 | 0.0 | 0.0 | 0.00 | 0.00 | 0.00 | 99 | 1008.1 |
| 20260508064538 | 42 | 102 | 0.0 | 0.0 | 0.00 | 0.00 | 0.00 | 99 | 1008.4 |
| 20260508064030 | 42 | 101 | 0.0 | 0.0 | 0.00 | 0.00 | 0.00 | 99 | 1008.4 |
| 20260508063527 | 42 | 101 | 0.0 | 0.0 | 0.00 | 0.00 | 0.00 | 99 | 1008.2 |
| 20260508063025 | 42 | 103 | 0.0 | 0.0 | 0.00 | 0.00 | 0.00 | 99 | 1008.6 |
| 20260508062517 | 42 | 102 | 0.0 | 0.0 | 0.00 | 0.00 | 0.00 | 99 | 1008.2 |
| 20260508062013 | 42 | 105 | 0.0 | 0.0 | 0.00 | 0.00 | 0.00 | 99 | 1008.6 |
| 20260508061512 | 42 | 105 | 0.0 | 0.0 | 0.00 | 0.00 | 0.00 | 99 | 1008.4 |
| 20260508061008 | 42 | 104 | 0.0 | 0.0 | 0.00 | 0.00 | 0.00 | 99 | 1008.4 |
| 20260508060505 | 42 | 99 | 0.0 | 0.0 | 0.00 | 0.00 | 0.00 | 99 | 1008.6 |
| 20260508060002 | 42 | 105 | 0.0 | 0.0 | 0.00 | 0.00 | 0.00 | 99 | 1008.5 |
| 20260508055458 | 42 | 105 | 0.0 | 0.0 | 0.00 | 0.00 | 0.00 | 99 | 1008.6 |
| 20260508054954 | 42 | 106 | 0.0 | 0.0 | 0.00 | 0.00 | 0.00 | 98 | 1008.7 |
| 20260508054451 | 42 | 102 | 0.0 | 0.0 | 0.00 | 0.00 | 0.00 | 98 | 1008.8 |
| 20260508053948 | 42 | 103 | 0.0 | 0.0 | 0.00 | 0.00 | 0.00 | 98 | 1008.8 |
| 20260508053445 | 42 | 103 | 0.0 | 0.0 | 0.00 | 0.00 | 0.00 | 98 | 1008.8 |
| 20260508052943 | 42 | 101 | 0.0 | 0.0 | 0.00 | 0.00 | 0.00 | 97 | 1008.8 |
| 20260508052440 | 43 | 101 | 0.0 | 0.0 | 0.00 | 0.00 | 0.00 | 97 | 1008.9 |
| 20260508051937 | 43 | 97 | 0.0 | 0.0 | 0.00 | 0.00 | 0.00 | 97 | 1009.0 |
| 20260508051432 | 43 | 103 | 0.0 | 0.0 | 0.00 | 0.00 | 0.00 | 97 | 1008.9 |
| 20260508050928 | 43 | 102 | 0.0 | 0.0 | 0.00 | 0.00 | 0.00 | 96 | 1009.1 |
| 20260508050425 | 43 | 101 | 0.0 | 0.0 | 0.00 | 0.00 | 0.00 | 96 | 1009.1 |
| 20260508045921 | 44 | 101 | 0.0 | 0.0 | 0.00 | 0.00 | 0.00 | 96 | 1008.8 |
| 20260508045419 | 44 | 105 | 0.0 | 0.0 | 0.00 | 0.00 | 0.00 | 96 | 1008.8 |
| 20260508044916 | 43 | 95 | 0.0 | 0.0 | 0.00 | 0.00 | 0.00 | 95 | 1008.9 |
| 20260508044413 | 43 | 105 | 0.0 | 0.0 | 0.00 | 0.00 | 0.00 | 95 | 1009.0 |
| 20260508043903 | 44 | 102 | 0.0 | 0.0 | 0.00 | 0.00 | 0.00 | 94 | 1009.0 |
| 20260508043401 | 44 | 103 | 0.0 | 0.0 | 0.00 | 0.00 | 0.00 | 94 | 1009.0 |
| 20260508042857 | 44 | 102 | 0.0 | 0.0 | 0.00 | 0.00 | 0.00 | 94 | 1009.0 |
| 20260508042354 | 44 | 102 | 0.0 | 0.0 | 0.00 | 0.00 | 0.00 | 94 | 1009.1 |
| 20260508041851 | 44 | 103 | 0.0 | 0.0 | 0.00 | 0.00 | 0.00 | 94 | 1009.3 |
| 20260508041347 | 44 | 107 | 0.0 | 0.0 | 0.00 | 0.00 | 0.00 | 93 | 1009.5 |
| 20260508040844 | 44 | 103 | 0.0 | 0.0 | 0.00 | 0.00 | 0.00 | 91 | 1009.5 |
| 20260508040342 | 44 | 103 | 0.0 | 0.0 | 0.00 | 0.00 | 0.00 | 91 | 1009.2 |
| 20260508035839 | 45 | 102 | 0.0 | 0.0 | 0.00 | 0.00 | 0.00 | 91 | 1009.2 |
| 20260508035336 | 45 | 103 | 0.0 | 0.0 | 0.00 | 0.00 | 0.00 | 90 | 1009.2 |
| 20260508034833 | 46 | 102 | 0.0 | 0.0 | 0.00 | 0.00 | 0.00 | 90 | 1009.3 |
| 20260508034330 | 46 | 102 | 0.0 | 0.0 | 0.00 | 0.00 | 0.00 | 90 | 1009.5 |
| 20260508033827 | 46 | 103 | 0.0 | 0.0 | 0.00 | 0.00 | 0.00 | 90 | 1009.4 |
| 20260508033325 | 46 | 106 | 0.0 | 0.0 | 0.00 | 0.00 | 0.00 | 90 | 1009.4 |
| 20260508032822 | 46 | 106 | 0.0 | 0.0 | 0.00 | 0.00 | 0.00 | 90 | 1009.1 |
| 20260508032319 | 46 | 105 | 0.0 | 0.0 | 0.00 | 0.00 | 0.00 | 89 | 1009.3 |
| 20260508031816 | 46 | 105 | 0.0 | 0.0 | 0.00 | 0.00 | 0.00 | 88 | 1009.3 |
| 20260508031313 | 47 | 103 | 0.0 | 0.0 | 0.00 | 0.00 | 0.00 | 87 | 1009.1 |
| 20260508030809 | 47 | 103 | 0.0 | 0.0 | 0.00 | 0.00 | 0.00 | 87 | 1009.0 |
| 20260508030307 | 47 | 102 | 0.0 | 0.0 | 0.00 | 0.00 | 0.00 | 87 | 1009.2 |
| 20260508025803 | 47 | 107 | 0.0 | 0.0 | 0.00 | 0.00 | 0.00 | 86 | 1008.9 |
| 20260508025300 | 47 | 104 | 0.0 | 0.0 | 0.00 | 0.00 | 0.00 | 86 | 1009.1 |
| 20260508024756 | 48 | 104 | 0.0 | 0.0 | 0.00 | 0.00 | 0.00 | 84 | 1008.8 |
| 20260508024253 | 48 | 104 | 0.0 | 0.0 | 0.00 | 0.00 | 0.00 | 84 | 1008.8 |
| 20260508023750 | 48 | 104 | 0.0 | 0.0 | 0.00 | 0.00 | 0.00 | 84 | 1008.7 |
| 20260508023247 | 49 | 105 | 0.0 | 0.0 | 0.00 | 0.00 | 0.00 | 83 | 1008.7 |
| 20260508022743 | 49 | 107 | 0.0 | 0.0 | 0.00 | 0.00 | 0.00 | 82 | 1008.4 |
| 20260508022240 | 49 | 104 | 0.0 | 0.0 | 0.00 | 0.00 | 0.00 | 82 | 1008.5 |
| 20260508021737 | 49 | 107 | 0.0 | 0.0 | 0.00 | 0.00 | 0.00 | 82 | 1008.5 |
| 20260508021232 | 50 | 105 | 0.0 | 0.0 | 0.00 | 0.00 | 0.00 | 81 | 1008.4 |
| 20260508020729 | 50 | 103 | 0.0 | 0.0 | 0.00 | 0.00 | 0.00 | 80 | 1008.1 |
| 20260508020227 | 51 | 103 | 0.0 | 0.0 | 0.00 | 0.00 | 0.00 | 80 | 1008.1 |
| 20260508015723 | 51 | 111 | 0.0 | 0.0 | 0.00 | 0.00 | 0.00 | 80 | 1008.0 |
| 20260508015220 | 51 | 115 | 0.0 | 0.0 | 0.00 | 0.00 | 0.00 | 79 | 1008.2 |
| 20260508014717 | 51 | 108 | 0.0 | 0.0 | 0.00 | 0.00 | 0.00 | 78 | 1008.5 |
| 20260508014214 | 52 | 108 | 0.0 | 0.0 | 0.00 | 0.00 | 0.00 | 77 | 1007.9 |
| 20260508013709 | 52 | 121 | 0.0 | 1.0 | 0.00 | 0.00 | 0.00 | 76 | 1008.0 |
| 20260508013206 | 52 | 112 | 0.0 | 0.0 | 0.00 | 0.00 | 0.00 | 76 | 1008.0 |
| 20260508012704 | 53 | 107 | 0.0 | 0.0 | 0.00 | 0.00 | 0.00 | 76 | 1008.1 |
| 20260508012200 | 53 | 117 | 0.0 | 0.0 | 0.00 | 0.00 | 0.00 | 76 | 1007.9 |